Weather in Kamashi

Uzbekistan     38°48′44″N   66°28′48″E
temp.,
°C
wind,
m/s
gust,
m/s
humid.,
%
clouds,
%
prec.,
mm/h
press.,
hPa
HPBL,
m
21 april, wed
wed2123:00+17sw224693 0.1 101420
02:00+15s225089 0.0 101416
05:00+13sw225881 0.0 101613
08:00+16wsw2255100 0.0 1017247
11:00+20w33454 0.0 10171367
14:00+22nw54324 0.0 10162137
17:00+21nnw65344 0.0 10162128
20:00+14nnw23410 0.0 101733
22 april, thu
thu2223:00+12s33400 0.0 101719
02:00+11e11470 0.0 101710
05:00+9ene11540 0.0 101813
08:00+13ne11460 0.0 1020200
11:00+19nnw33370 0.0 10201192
14:00+22nnw33250 0.0 10201661
17:00+22n55240 0.0 10181539
20:00+15ene34470 0.0 102053
23 april, fri
fri2323:00+14ese22450 0.0 102019
02:00+13se22455 0.0 101912
05:00+13ese22485 0.0 101913
08:00+18sse114023 0.0 1020126
11:00+22nw222715 0.0 10201620
14:00+24n442261 0.0 10182148
17:00+24n43230 0.0 10171701
20:00+18e22340 0.0 101711
24 april, sat
sat2423:00+16ese223931 0.0 101711
02:00+16se22381 0.0 101613
05:00+15se224058 0.0 101613
08:00+20sw123585 0.0 1018143
11:00+24w2225100 0.0 10181002
14:00+26nw3221100 0.0 10161766
17:00+25n3321100 0.0 10161232
20:00+19ene2233100 0.0 101712
25 april, sun
sun2523:00+17ese113786 0.0 101711
02:00+18ese223984 0.0 101611
05:00+17ese1142100 0.0 101611
08:00+22ese003460 0.0 1017108
11:00+27w2123100 0.0 10161039
14:00+29nnw332170 0.0 10151603
17:00+28n452353 0.0 10141353
20:00+22e223458 0.0 101411